| time (UTC) | temp F | wind direction | speed knots | gust knots | rain 1hr in | rain 24hr in | rain mn in | humidity % | barometer mb |
| 20260510074544 | 54 | 0 | 0.0 | 0.0 | 0.00 | 0.00 | 0.00 | 84 | 1017.0 |
| 20260510073053 | 54 | 0 | 0.0 | 0.0 | 0.00 | 0.00 | 0.00 | 83 | 1017.1 |
| 20260510071547 | 54 | 0 | 0.0 | 0.0 | 0.00 | 0.00 | 0.00 | 82 | 1017.0 |
| 20260510070050 | 55 | 0 | 0.0 | 0.0 | 0.00 | 0.00 | 0.00 | 81 | 1016.8 |
| 20260510064552 | 55 | 0 | 0.0 | 0.0 | 0.00 | 0.00 | 0.00 | 80 | 1016.6 |
| 20260510063043 | 56 | 0 | 0.0 | 0.9 | 0.00 | 0.00 | 0.00 | 78 | 1016.6 |
| 20260510061549 | 56 | 0 | 0.0 | 0.0 | 0.00 | 0.00 | 0.00 | 77 | 1016.5 |
| 20260510060050 | 56 | 0 | 0.0 | 0.9 | 0.00 | 0.00 | 0.00 | 75 | 1016.4 |
| 20260510054546 | 57 | 0 | 0.0 | 0.9 | 0.00 | 0.00 | 0.00 | 74 | 1016.4 |
| 20260510053048 | 57 | 0 | 0.0 | 1.7 | 0.00 | 0.00 | 0.00 | 72 | 1016.4 |
| 20260510051546 | 58 | 0 | 0.0 | 0.0 | 0.00 | 0.00 | 0.00 | 70 | 1016.3 |
| 20260510050055 | 59 | 0 | 0.0 | 0.0 | 0.00 | 0.00 | 0.00 | 67 | 1016.2 |
| 20260510044549 | 59 | 0 | 0.0 | 0.0 | 0.00 | 0.00 | 0.00 | 66 | 1016.1 |
| 20260510043048 | 60 | 0 | 0.0 | 0.0 | 0.00 | 0.00 | 0.00 | 64 | 1016.0 |
| 20260510041546 | 62 | 0 | 0.0 | 0.0 | 0.00 | 0.00 | 0.00 | 64 | 1015.8 |
| 20260510040055 | 63 | 0 | 0.0 | 0.0 | 0.00 | 0.00 | 0.00 | 62 | 1015.6 |
| 20260510034544 | 64 | 0 | 0.0 | 0.0 | 0.00 | 0.00 | 0.00 | 61 | 1015.3 |
| 20260510033053 | 66 | 0 | 0.0 | 0.0 | 0.00 | 0.00 | 0.00 | 55 | 1015.3 |
| 20260510031548 | 67 | 0 | 0.0 | 0.0 | 0.00 | 0.00 | 0.00 | 49 | 1015.1 |
| 20260510024543 | 70 | 0 | 0.0 | 0.0 | 0.00 | 0.00 | 0.00 | 43 | 1014.7 |
| 20260510023044 | 72 | 0 | 0.0 | 1.7 | 0.00 | 0.00 | 0.00 | 40 | 1014.7 |
| 20260510021635 | 74 | 0 | 0.0 | 1.7 | 0.00 | 0.00 | 0.00 | 37 | 1015.0 |
| 20260510020047 | 74 | 0 | 0.0 | 1.7 | 0.00 | 0.00 | 0.00 | 32 | 1015.0 |
| 20260510014557 | 75 | 342 | 0.0 | 2.6 | 0.00 | 0.00 | 0.00 | 31 | 1015.1 |
| 20260510013057 | 75 | 0 | 0.0 | 2.6 | 0.00 | 0.00 | 0.00 | 34 | 1015.2 |
| 20260510011546 | 75 | 0 | 0.0 | 2.6 | 0.00 | 0.00 | 0.00 | 34 | 1015.2 |
| 20260510010054 | 76 | 33 | 0.9 | 3.5 | 0.00 | 0.00 | 0.00 | 33 | 1015.4 |
| 20260510004544 | 75 | 11 | 0.0 | 2.6 | 0.00 | 0.00 | 0.00 | 33 | 1015.4 |
| 20260510003043 | 75 | 324 | 0.9 | 3.5 | 0.00 | 0.00 | 0.00 | 38 | 1015.4 |
| 20260510001544 | 76 | 360 | 1.7 | 7.8 | 0.00 | 0.00 | 0.00 | 41 | 1015.4 |
| 20260510000050 | 76 | 333 | 0.9 | 5.2 | 0.00 | 0.00 | 0.00 | 43 | 1015.4 |
| 20260509234545 | 75 | 229 | 0.9 | 7.8 | 0.00 | 0.00 | 0.00 | 47 | 1015.5 |
| 20260509233043 | 75 | 350 | 1.7 | 8.7 | 0.00 | 0.00 | 0.00 | 44 | 1015.7 |
| 20260509231547 | 75 | 15 | 0.9 | 7.0 | 0.00 | 0.00 | 0.00 | 49 | 1015.8 |
| 20260509230049 | 74 | 350 | 1.7 | 7.8 | 0.00 | 0.00 | 0.00 | 47 | 1015.9 |
| 20260509224548 | 75 | 0 | 0.9 | 4.3 | 0.00 | 0.00 | 0.00 | 48 | 1016.1 |
| 20260509223048 | 75 | 350 | 1.7 | 7.0 | 0.00 | 0.00 | 0.00 | 49 | 1016.3 |
| 20260509221548 | 75 | 352 | 0.9 | 7.0 | 0.00 | 0.00 | 0.00 | 53 | 1016.5 |
| 20260509220050 | 74 | 352 | 2.6 | 8.7 | 0.00 | 0.00 | 0.00 | 52 | 1016.7 |
| 20260509214547 | 74 | 24 | 2.6 | 7.0 | 0.00 | 0.00 | 0.00 | 53 | 1017.1 |
| 20260509213102 | 74 | 17 | 1.7 | 7.0 | 0.00 | 0.00 | 0.00 | 53 | 1017.3 |
| 20260509211542 | 73 | 336 | 3.5 | 7.8 | 0.00 | 0.00 | 0.00 | 54 | 1017.3 |
| 20260509210050 | 72 | 29 | 1.7 | 7.8 | 0.00 | 0.00 | 0.00 | 57 | 1017.4 |
| 20260509204546 | 72 | 39 | 1.7 | 7.8 | 0.00 | 0.00 | 0.00 | 58 | 1017.6 |
| 20260509203042 | 71 | 19 | 1.7 | 7.8 | 0.00 | 0.00 | 0.00 | 57 | 1017.7 |
| 20260509201549 | 70 | 352 | 1.7 | 7.8 | 0.00 | 0.00 | 0.00 | 60 | 1018.0 |
| 20260509200051 | 70 | 12 | 0.9 | 5.2 | 0.00 | 0.00 | 0.00 | 61 | 1018.1 |
| 20260509194553 | 69 | 5 | 1.7 | 6.1 | 0.00 | 0.00 | 0.00 | 61 | 1018.2 |
| 20260509193044 | 69 | 323 | 0.9 | 4.3 | 0.00 | 0.00 | 0.00 | 62 | 1018.4 |
| 20260509191556 | 68 | 13 | 0.9 | 4.3 | 0.00 | 0.00 | 0.00 | 64 | 1018.5 |
| 20260509190049 | 67 | 12 | 0.9 | 4.3 | 0.00 | 0.00 | 0.00 | 65 | 1018.6 |
| 20260509184550 | 66 | 232 | 2.6 | 7.0 | 0.00 | 0.00 | 0.00 | 64 | 1018.9 |
| 20260509183116 | 65 | 25 | 0.0 | 3.5 | 0.00 | 0.00 | 0.00 | 66 | 1019.0 |
| 20260509181551 | 63 | 32 | 1.7 | 4.3 | 0.00 | 0.00 | 0.00 | 68 | 1019.0 |
| 20260509180057 | 63 | 5 | 0.9 | 4.3 | 0.00 | 0.00 | 0.00 | 68 | 1019.2 |
| 20260509174546 | 62 | 17 | 0.0 | 4.3 | 0.00 | 0.00 | 0.00 | 70 | 1019.1 |
| 20260509173056 | 61 | 351 | 0.9 | 3.5 | 0.00 | 0.00 | 0.00 | 70 | 1019.2 |
| 20260509171543 | 60 | 23 | 0.9 | 3.5 | 0.00 | 0.00 | 0.00 | 73 | 1019.4 |
| 20260509170042 | 59 | 23 | 1.7 | 4.3 | 0.00 | 0.00 | 0.00 | 73 | 1019.6 |
| 20260509164546 | 59 | 323 | 0.9 | 4.3 | 0.00 | 0.00 | 0.00 | 75 | 1019.9 |
| 20260509163051 | 57 | 360 | 0.9 | 4.3 | 0.00 | 0.00 | 0.00 | 78 | 1020.1 |
| 20260509161557 | 56 | 5 | 0.0 | 3.5 | 0.00 | 0.00 | 0.00 | 78 | 1020.2 |
| 20260509160051 | 56 | 0 | 0.0 | 2.6 | 0.00 | 0.00 | 0.00 | 79 | 1020.3 |
| 20260509154551 | 55 | 45 | 0.0 | 1.7 | 0.00 | 0.00 | 0.00 | 82 | 1020.3 |
| 20260509153059 | 54 | 14 | 0.9 | 2.6 | 0.00 | 0.00 | 0.00 | 85 | 1020.5 |
| 20260509151549 | 52 | 0 | 0.0 | 1.7 | 0.00 | 0.00 | 0.00 | 89 | 1020.5 |
| 20260509150042 | 51 | 0 | 0.0 | 1.7 | 0.00 | 0.00 | 0.00 | 92 | 1020.6 |
| 20260509144550 | 49 | 0 | 0.0 | 0.0 | 0.00 | 0.00 | 0.00 | 96 | 1020.5 |
| 20260509143048 | 47 | 0 | 0.0 | 0.0 | 0.00 | 0.00 | 0.00 | 96 | 1020.6 |
| 20260509141549 | 45 | 0 | 0.0 | 0.0 | 0.00 | 0.00 | 0.00 | 95 | 1020.7 |
| 20260509140059 | 44 | 0 | 0.0 | 0.0 | 0.00 | 0.00 | 0.00 | 95 | 1020.6 |
| 20260509134549 | 44 | 0 | 0.0 | 0.0 | 0.00 | 0.00 | 0.00 | 94 | 1020.6 |
| 20260509133042 | 43 | 0 | 0.0 | 0.0 | 0.00 | 0.00 | 0.00 | 93 | 1020.6 |
| 20260509131545 | 44 | 0 | 0.0 | 0.0 | 0.00 | 0.00 | 0.00 | 93 | 1020.5 |
| 20260509130046 | 44 | 0 | 0.0 | 0.0 | 0.00 | 0.00 | 0.00 | 93 | 1020.8 |
| 20260509124550 | 44 | 0 | 0.0 | 0.0 | 0.00 | 0.00 | 0.00 | 93 | 1020.9 |
| 20260509123045 | 44 | 0 | 0.0 | 0.0 | 0.00 | 0.00 | 0.00 | 93 | 1020.9 |
| 20260509121549 | 44 | 0 | 0.0 | 0.0 | 0.00 | 0.00 | 0.00 | 92 | 1020.8 |
| 20260509120050 | 45 | 0 | 0.0 | 0.0 | 0.00 | 0.00 | 0.00 | 93 | 1020.9 |
| 20260509114547 | 45 | 0 | 0.0 | 0.0 | 0.00 | 0.00 | 0.00 | 92 | 1021.1 |
| 20260509113044 | 45 | 0 | 0.0 | 0.0 | 0.00 | 0.00 | 0.00 | 92 | 1020.9 |
| 20260509111542 | 45 | 0 | 0.0 | 0.0 | 0.00 | 0.00 | 0.00 | 92 | 1021.0 |
| 20260509110049 | 46 | 0 | 0.0 | 0.0 | 0.00 | 0.00 | 0.00 | 91 | 1021.2 |
| 20260509104543 | 46 | 0 | 0.0 | 0.0 | 0.00 | 0.00 | 0.00 | 91 | 1021.4 |
| 20260509103100 | 46 | 0 | 0.0 | 0.0 | 0.00 | 0.00 | 0.00 | 91 | 1021.4 |
| 20260509101542 | 47 | 0 | 0.0 | 0.0 | 0.00 | 0.00 | 0.00 | 91 | 1021.5 |
| 20260509100048 | 47 | 0 | 0.0 | 0.0 | 0.00 | 0.00 | 0.00 | 91 | 1021.5 |
| 20260509094558 | 47 | 0 | 0.0 | 0.0 | 0.00 | 0.00 | 0.00 | 91 | 1021.5 |
| 20260509093043 | 48 | 0 | 0.0 | 0.0 | 0.00 | 0.00 | 0.00 | 91 | 1021.3 |
| 20260509091551 | 48 | 0 | 0.0 | 0.0 | 0.00 | 0.00 | 0.00 | 90 | 1021.6 |
| 20260509090053 | 49 | 0 | 0.0 | 0.0 | 0.00 | 0.00 | 0.00 | 89 | 1021.6 |
| 20260509084549 | 49 | 0 | 0.0 | 0.0 | 0.00 | 0.00 | 0.00 | 90 | 1021.7 |
| 20260509083052 | 49 | 0 | 0.0 | 0.0 | 0.00 | 0.00 | 0.00 | 89 | 1021.9 |
| 20260509081543 | 50 | 0 | 0.0 | 0.0 | 0.00 | 0.00 | 0.00 | 89 | 1021.8 |
| 20260509080047 | 50 | 0 | 0.0 | 0.0 | 0.00 | 0.00 | 0.00 | 88 | 1021.9 |